START_TIME,STEP,MOV.,M29,t_acc.,H22,t_acc.,H26,t_acc.,H30,t_acc.
1980-11-16 06:00:20.500 ,5,0,0.,24.0,0.,24.0,0.,24.0,0.,24.0
1980-11-16 06:00:44.500 ,6,1,0.,24.0,0.,24.0,0.,24.0,0.,24.0
1980-11-16 06:01:08.500 ,6,0,0.,24.0,0.,24.0,0.,24.0,0.,24.0
1980-11-16 06:01:32.500 ,7,1,0.,24.0,0.,24.0,0.,24.0,0.,24.0
1980-11-16 06:01:56.500 ,7,0,0.,24.0,0.,24.0,0.,24.0,0.,24.0
1980-11-16 06:02:20.500 ,7,1,0.,24.0,0.,24.0,0.,24.0,0.,24.0
1980-11-16 06:02:44.500 ,7,0,0.,24.0,0.,24.0,0.,24.0,0.,24.0
1980-11-16 06:03:08.500 ,6,1,0.,24.0,0.,24.0,0.,24.0,0.,24.0
1980-11-16 06:03:32.500 ,6,0,0.,24.0,0.,24.0,0.,24.0,0.,24.0
1980-11-16 06:03:56.500 ,5,1,0.,24.0,0.,24.0,0.,24.0,0.,24.0
1980-11-16 06:04:20.500 ,5,0,0.,24.0,0.,24.0,0.,24.0,0.,24.0
1980-11-16 06:04:44.500 ,4,1,0.,24.0,0.,24.0,0.,24.0,0.,24.0
1980-11-16 06:05:08.500 ,4,0,0.,24.0,0.,24.0,0.,24.0,0.,24.0
1980-11-16 06:05:32.500 ,3,1,0.,24.0,0.,24.0,0.,24.0,0.,24.0
1980-11-16 06:05:56.500 ,3,0,0.,24.0,0.,24.0,0.,24.0,0.,24.0
1980-11-16 06:06:20.500 ,2,1,0.,24.0,0.,24.0,0.,24.0,0.,24.0
1980-11-16 06:06:44.500 ,2,0,0.,24.0,0.,24.0,0.,24.0,0.,24.0
1980-11-16 06:07:08.500 ,1,1,0.,24.0,0.,24.0,0.,24.0,0.,24.0
1980-11-16 06:07:32.500 ,1,0,0.,24.0,0.,24.0,0.,24.0,0.,24.0
1980-11-16 06:07:56.500 ,0,1,0.,24.0,0.,24.0,0.,24.0,0.,24.0
1980-11-16 06:08:20.500 ,0,0,0.,24.0,0.,24.0,0.,24.0,0.,24.0
1980-11-16 06:08:44.500 ,0,1,0.,24.0,0.,24.0,0.,24.0,0.,24.0
1980-11-16 06:09:08.500 ,0,0,0.,24.0,0.,24.0,0.,24.0,0.,24.0
1980-11-16 06:09:32.500 ,1,1,0.,24.0,0.,24.0,0.,24.0,0.,24.0
1980-11-16 06:09:56.500 ,1,0,0.,24.0,0.,24.0,0.,24.0,0.,24.0
1980-11-16 06:10:20.500 ,2,1,0.,24.0,0.,24.0,0.,24.0,0.,24.0
1980-11-16 06:10:44.500 ,2,0,0.,24.0,0.,24.0,0.,24.0,0.,24.0
1980-11-16 06:11:08.500 ,3,1,0.,24.0,0.,24.0,0.,24.0,0.,24.0
1980-11-16 06:11:32.500 ,3,0,0.,24.0,0.,24.0,0.,24.0,0.,24.0
1980-11-16 06:11:56.500 ,4,1,0.,24.0,0.,24.0,0.,24.0,0.,24.0
1980-11-16 06:12:20.500 ,4,0,0.,24.0,0.,24.0,0.,24.0,0.,24.0
1980-11-16 06:12:44.500 ,5,1,0.,24.0,0.,24.0,0.,24.0,0.,24.0
1980-11-16 06:13:08.500 ,5,0,0.,24.0,0.,24.0,0.,24.0,0.,24.0
1980-11-16 06:14:20.500 ,0,0,0.,24.0,0.,24.0,0.,24.0,0.,24.0
1980-11-16 06:14:44.500 ,0,0,0.,24.0,0.,24.0,0.,24.0,0.,24.0
1980-11-16 06:15:08.500 ,7,1,0.,24.0,0.,24.0,0.,24.0,0.,24.0
1980-11-16 06:15:32.500 ,7,0,0.,24.0,0.,24.0,0.,24.0,0.,24.0
1980-11-16 06:15:56.500 ,6,1,0.,24.0,0.,24.0,0.,24.0,0.,24.0
1980-11-16 06:16:20.500 ,6,0,0.,24.0,0.,24.0,0.,24.0,0.,24.0
1980-11-16 06:16:44.500 ,5,1,0.,24.0,0.,24.0,0.,24.0,0.,24.0
1980-11-16 06:17:08.500 ,5,0,0.,24.0,0.,24.0,0.,24.0,0.,24.0
1980-11-16 06:17:32.500 ,4,1,0.,24.0,0.,24.0,0.,24.0,0.,24.0
1980-11-16 06:17:56.500 ,4,0,0.,24.0,0.,24.0,0.,24.0,0.,24.0
1980-11-16 06:18:20.500 ,3,1,0.,24.0,0.,24.0,0.,24.0,0.,24.0
1980-11-16 06:18:44.500 ,3,0,0.,24.0,0.,24.0,0.,24.0,0.,24.0
1980-11-16 06:19:08.500 ,2,1,0.,24.0,0.,24.0,0.,24.0,0.,24.0
1980-11-16 06:19:32.500 ,2,0,0.,24.0,0.,24.0,0.,24.0,0.,24.0
1980-11-16 06:19:56.500 ,1,1,0.,24.0,0.,24.0,0.,24.0,0.,24.0
1980-11-16 06:20:20.500 ,1,0,0.,24.0,0.,24.0,0.,24.0,0.,24.0
1980-11-16 06:20:44.500 ,0,1,0.,24.0,0.,24.0,0.,24.0,0.,24.0
1980-11-16 06:21:08.500 ,0,0,0.,24.0,0.,24.0,0.,24.0,0.,24.0
1980-11-16 06:21:32.500 ,0,1,0.,24.0,0.,24.0,0.,24.0,0.,24.0
1980-11-16 06:21:56.500 ,0,0,0.,24.0,0.,24.0,0.,24.0,0.,24.0
1980-11-16 06:22:20.500 ,1,1,0.,24.0,0.,24.0,0.,24.0,0.,24.0
1980-11-16 06:22:44.500 ,1,0,0.,24.0,0.,24.0,0.,24.0,0.,24.0
1980-11-16 06:23:08.500 ,2,1,0.,24.0,0.,24.0,0.,24.0,0.,24.0
1980-11-16 06:23:32.500 ,2,0,0.,24.0,0.,24.0,0.,24.0,0.,24.0
1980-11-16 06:23:56.500 ,3,1,0.,24.0,0.,24.0,0.,24.0,0.,24.0
1980-11-16 06:24:20.500 ,3,0,0.,24.0,0.,24.0,0.,24.0,0.,24.0
1980-11-16 06:24:44.500 ,4,1,0.,24.0,0.,24.0,0.,24.0,0.,24.0
1980-11-16 06:25:08.500 ,4,0,0.,24.0,0.,24.0,0.,24.0,0.,24.0
1980-11-16 06:25:32.500 ,5,1,0.,24.0,0.,24.0,0.,24.0,0.,24.0
1980-11-16 06:25:56.500 ,5,0,0.,24.0,0.,24.0,0.,24.0,0.,24.0
1980-11-16 06:26:20.500 ,6,1,0.,24.0,0.,24.0,0.,24.0,0.,24.0
1980-11-16 06:26:44.500 ,6,0,0.,24.0,0.,24.0,0.,24.0,0.,24.0
1980-11-16 06:27:08.500 ,7,1,0.,24.0,0.,24.0,0.,24.0,0.,24.0
1980-11-16 06:27:32.500 ,7,0,0.,24.0,0.,24.0,0.,24.0,0.,24.0
1980-11-16 06:27:56.500 ,7,1,0.,24.0,0.,24.0,0.,24.0,0.,24.0
1980-11-16 06:28:20.500 ,7,0,0.,24.0,0.,24.0,0.,24.0,0.,24.0
1980-11-16 06:28:44.500 ,6,1,0.,24.0,0.,24.0,0.,24.0,0.,24.0
1980-11-16 06:29:08.500 ,6,0,0.,24.0,0.,24.0,0.,24.0,0.,24.0
1980-11-16 06:29:32.500 ,5,1,0.,24.0,0.,24.0,0.,24.0,0.,24.0
1980-11-16 06:29:56.500 ,5,0,0.,24.0,0.,24.0,0.,24.0,0.,24.0
1980-11-16 06:30:20.500 ,4,1,0.,24.0,0.,24.0,0.,24.0,0.,24.0
1980-11-16 06:30:44.500 ,4,0,0.,24.0,0.,24.0,0.,24.0,0.,24.0
1980-11-16 06:31:08.500 ,3,1,0.,24.0,0.,24.0,0.,24.0,0.,24.0
1980-11-16 06:31:32.500 ,3,0,0.,24.0,0.,24.0,0.,24.0,0.,24.0
1980-11-16 06:31:56.500 ,2,1,0.,24.0,0.,24.0,0.,24.0,0.,24.0
1980-11-16 06:32:20.500 ,2,0,0.,24.0,0.,24.0,0.,24.0,0.,24.0
1980-11-16 06:32:44.500 ,1,1,0.,24.0,0.,24.0,0.,24.0,0.,24.0
1980-11-16 06:33:08.500 ,1,0,0.,24.0,0.,24.0,0.,24.0,0.,24.0
1980-11-16 06:33:32.500 ,0,1,0.,24.0,0.,24.0,0.,24.0,0.,24.0
1980-11-16 06:33:56.500 ,0,0,0.,24.0,0.,24.0,0.,24.0,0.,24.0
1980-11-16 06:34:20.500 ,0,1,0.,24.0,0.,24.0,0.,24.0,0.,24.0
1980-11-16 06:34:44.500 ,0,0,0.,24.0,0.,24.0,0.,24.0,0.,24.0
1980-11-16 06:35:08.500 ,1,1,0.,24.0,0.,24.0,0.,24.0,0.,24.0
1980-11-16 06:35:32.500 ,1,0,0.,24.0,0.,24.0,0.,24.0,0.,24.0
1980-11-16 06:35:56.500 ,2,1,0.,24.0,0.,24.0,0.,24.0,0.,24.0
1980-11-16 06:36:20.500 ,2,0,0.,24.0,0.,24.0,0.,24.0,0.,24.0
1980-11-16 06:36:44.500 ,3,1,0.,24.0,0.,24.0,0.,24.0,0.,24.0
1980-11-16 06:37:08.500 ,3,0,0.,24.0,0.,24.0,0.,24.0,0.,24.0
1980-11-16 06:37:32.500 ,4,1,0.,24.0,0.,24.0,0.,24.0,0.,24.0
1980-11-16 06:37:56.500 ,4,0,0.,24.0,0.,24.0,0.,24.0,0.,24.0
1980-11-16 06:38:20.500 ,5,1,0.,24.0,0.,24.0,0.,24.0,0.,24.0
1980-11-16 06:38:44.500 ,5,0,0.,24.0,0.,24.0,0.,24.0,0.,24.0
1980-11-16 06:39:08.500 ,6,1,0.,24.0,0.,24.0,0.,24.0,0.,24.0
1980-11-16 06:39:32.500 ,6,0,0.,24.0,0.,24.0,0.,24.0,0.,24.0
1980-11-16 06:39:56.500 ,7,1,0.,24.0,0.,24.0,0.,24.0,0.,24.0
1980-11-16 06:40:20.500 ,7,0,0.,24.0,0.,24.0,0.,24.0,0.,24.0
1980-11-16 06:40:44.500 ,7,1,0.,24.0,0.,24.0,0.,24.0,0.,24.0
1980-11-16 06:41:08.500 ,7,0,0.,24.0,0.,24.0,0.,24.0,0.,24.0
1980-11-16 06:41:32.500 ,6,1,0.,24.0,0.,24.0,0.,24.0,0.,24.0
1980-11-16 06:41:56.500 ,6,0,0.,24.0,0.,24.0,0.,24.0,0.,24.0
1980-11-16 06:42:20.500 ,5,1,0.,24.0,0.,24.0,0.,24.0,0.,24.0
1980-11-16 06:42:44.500 ,5,0,0.,24.0,0.,24.0,0.,24.0,0.,24.0
1980-11-16 06:43:08.500 ,4,1,0.,24.0,0.,24.0,0.,24.0,0.,24.0
1980-11-16 06:43:32.500 ,4,0,0.,24.0,0.,24.0,0.,24.0,0.,24.0
1980-11-16 06:43:56.500 ,3,1,0.,24.0,0.,24.0,0.,24.0,0.,24.0
1980-11-16 06:44:20.500 ,3,0,0.,24.0,0.,24.0,0.,24.0,0.,24.0
1980-11-16 06:44:44.500 ,2,1,0.,24.0,0.,24.0,0.,24.0,0.,24.0
1980-11-16 06:45:08.500 ,2,0,0.,24.0,0.,24.0,0.,24.0,0.,24.0
1980-11-16 06:45:32.500 ,1,1,0.,24.0,0.,24.0,0.,24.0,0.,24.0
1980-11-16 06:45:56.500 ,1,0,0.,24.0,0.,24.0,0.,24.0,0.,24.0
1980-11-16 06:46:20.500 ,0,1,0.,24.0,0.,24.0,0.,24.0,0.,24.0
1980-11-16 06:46:44.500 ,0,0,0.,24.0,0.,24.0,0.,24.0,0.,24.0
1980-11-16 06:47:08.500 ,0,1,0.,24.0,0.,24.0,0.,24.0,0.,24.0
1980-11-16 06:47:32.500 ,0,0,0.,24.0,0.,24.0,0.,24.0,0.,24.0
1980-11-16 06:47:56.500 ,1,1,0.,24.0,0.,24.0,0.,24.0,0.,24.0
1980-11-16 06:48:20.500 ,1,0,0.,24.0,0.,24.0,0.,24.0,0.,24.0
1980-11-16 06:48:44.500 ,2,1,0.,24.0,0.,24.0,0.,24.0,0.,24.0
1980-11-16 06:49:08.500 ,2,0,0.,24.0,0.,24.0,0.,24.0,0.,24.0
1980-11-16 06:49:32.500 ,3,1,0.,24.0,0.,24.0,0.,24.0,0.,24.0
1980-11-16 06:49:56.500 ,3,0,0.,24.0,0.,24.0,0.,24.0,0.,24.0
1980-11-16 06:50:20.500 ,4,1,0.,24.0,0.,24.0,0.,24.0,0.,24.0
1980-11-16 06:50:44.500 ,4,0,0.,24.0,0.,24.0,0.,24.0,0.,24.0
1980-11-16 06:51:08.500 ,5,1,0.,24.0,0.,24.0,0.,24.0,0.,24.0
1980-11-16 06:51:32.500 ,5,0,0.,24.0,0.,24.0,0.,24.0,0.,24.0
1980-11-16 06:51:56.500 ,6,1,0.,24.0,0.,24.0,0.,24.0,0.,24.0
1980-11-16 06:52:20.500 ,6,0,0.,24.0,0.,24.0,0.,24.0,0.,24.0
1980-11-16 06:52:44.500 ,7,1,0.,24.0,0.,24.0,0.,24.0,0.,24.0
1980-11-16 06:53:08.500 ,7,0,0.,24.0,0.,24.0,0.,24.0,0.,24.0
1980-11-16 06:53:32.500 ,7,1,0.,24.0,0.,24.0,0.,24.0,0.,24.0
1980-11-16 06:53:56.500 ,7,0,0.,24.0,0.,24.0,0.,24.0,0.,24.0
1980-11-16 06:54:20.500 ,6,1,0.,24.0,0.,24.0,0.,24.0,0.,24.0
1980-11-16 06:54:44.500 ,6,0,0.,24.0,0.,24.0,0.,24.0,0.,24.0
1980-11-16 06:55:08.500 ,5,1,0.,24.0,0.,24.0,0.,24.0,0.,24.0
1980-11-16 06:55:32.500 ,5,0,0.,24.0,0.,24.0,0.,24.0,0.,24.0
1980-11-16 06:55:56.500 ,4,1,0.,24.0,0.,24.0,0.,24.0,0.,24.0
1980-11-16 06:56:20.500 ,4,0,0.,24.0,0.,24.0,0.,24.0,0.,24.0
1980-11-16 06:56:44.500 ,3,1,0.,24.0,0.,24.0,0.,24.0,0.,24.0
1980-11-16 06:57:08.500 ,3,0,0.,24.0,0.,24.0,0.,24.0,0.,24.0
1980-11-16 06:57:32.500 ,2,1,0.,24.0,0.,24.0,0.,24.0,0.,24.0
1980-11-16 06:57:56.500 ,2,0,0.,24.0,0.,24.0,0.,24.0,0.,24.0
1980-11-16 06:58:20.500 ,1,1,0.,24.0,0.,24.0,0.,24.0,0.,24.0
1980-11-16 06:58:44.500 ,1,0,0.,24.0,0.,24.0,0.,24.0,0.,24.0
1980-11-16 06:59:08.500 ,0,1,0.,24.0,0.,24.0,0.,24.0,0.,24.0
1980-11-16 06:59:32.500 ,0,0,0.,24.0,0.,24.0,0.,24.0,0.,24.0
1980-11-16 06:59:56.500 ,0,1,0.,24.0,0.,24.0,0.,24.0,0.,24.0
1980-11-16 07:00:20.500 ,0,0,0.,24.0,0.,24.0,0.,24.0,0.,24.0
1980-11-16 07:00:44.500 ,1,1,0.,24.0,0.,24.0,0.,24.0,0.,24.0
1980-11-16 07:01:08.500 ,1,0,0.,24.0,0.,24.0,0.,24.0,0.,24.0
1980-11-16 07:01:32.500 ,2,1,0.,24.0,0.,24.0,0.,24.0,0.,24.0
1980-11-16 07:01:56.500 ,2,0,0.,24.0,0.,24.0,0.,24.0,0.,24.0
1980-11-16 07:02:20.500 ,3,1,0.,24.0,0.,24.0,0.,24.0,0.,24.0
1980-11-16 07:02:44.500 ,3,0,0.,24.0,0.,24.0,0.,24.0,0.,24.0
1980-11-16 07:03:08.500 ,4,1,0.,24.0,0.,24.0,0.,24.0,0.,24.0
1980-11-16 07:03:32.500 ,4,0,0.,24.0,0.,24.0,0.,24.0,0.,24.0
1980-11-16 07:03:56.500 ,5,1,0.,24.0,0.,24.0,0.,24.0,0.,24.0
1980-11-16 07:04:20.500 ,5,0,0.,24.0,0.,24.0,0.,24.0,0.,24.0
1980-11-16 07:04:44.500 ,6,1,0.,24.0,0.,24.0,0.,24.0,0.,24.0
1980-11-16 07:05:08.500 ,6,0,0.,24.0,0.,24.0,0.,24.0,0.,24.0
1980-11-16 07:05:32.500 ,7,1,0.,24.0,0.,24.0,0.,24.0,0.,24.0
1980-11-16 07:05:56.500 ,7,0,0.,24.0,0.,24.0,0.,24.0,0.,24.0
1980-11-16 07:06:20.500 ,7,1,0.,24.0,0.,24.0,0.,24.0,0.,24.0
1980-11-16 07:06:44.500 ,7,0,0.,24.0,0.,24.0,0.,24.0,0.,24.0
1980-11-16 07:07:08.500 ,6,1,0.,24.0,0.,24.0,0.,24.0,0.,24.0
1980-11-16 07:07:32.500 ,6,0,0.,24.0,0.,24.0,0.,24.0,0.,24.0
1980-11-16 07:07:56.500 ,5,1,0.,24.0,0.,24.0,0.,24.0,0.,24.0
1980-11-16 07:08:20.500 ,5,0,0.,24.0,0.,24.0,0.,24.0,0.,24.0
1980-11-16 07:08:44.500 ,4,1,0.,24.0,0.,24.0,0.,24.0,0.,24.0
1980-11-16 07:09:08.500 ,4,0,0.,24.0,0.,24.0,0.,24.0,0.,24.0
1980-11-16 07:09:32.500 ,3,1,0.,24.0,0.,24.0,0.,24.0,0.,24.0
1980-11-16 07:09:56.500 ,3,0,0.,24.0,0.,24.0,0.,24.0,0.,24.0
1980-11-16 07:10:20.500 ,2,1,0.,24.0,0.,24.0,0.,24.0,0.,24.0
1980-11-16 07:10:44.500 ,2,0,0.,24.0,0.,24.0,0.,24.0,0.,24.0
1980-11-16 07:11:08.500 ,1,1,1.,24.0,0.,24.0,0.,24.0,0.,24.0
1980-11-16 07:11:32.500 ,1,0,0.,24.0,0.,24.0,0.,24.0,0.,24.0
1980-11-16 07:11:56.500 ,0,1,0.,24.0,0.,24.0,0.,24.0,0.,24.0
1980-11-16 07:12:20.500 ,0,0,0.,24.0,0.,24.0,0.,24.0,0.,24.0
1980-11-16 07:12:44.500 ,0,1,0.,24.0,0.,24.0,0.,24.0,0.,24.0
1980-11-16 07:13:08.500 ,0,0,0.,24.0,0.,24.0,0.,24.0,0.,24.0
1980-11-16 07:13:32.500 ,1,1,0.,24.0,0.,24.0,0.,24.0,0.,24.0
1980-11-16 07:13:56.500 ,1,0,0.,24.0,0.,24.0,0.,24.0,0.,24.0
1980-11-16 07:14:20.500 ,2,1,0.,24.0,0.,24.0,0.,24.0,0.,24.0
1980-11-16 07:14:44.500 ,2,0,0.,24.0,0.,24.0,0.,24.0,0.,24.0
1980-11-16 07:15:08.500 ,3,1,0.,24.0,0.,24.0,0.,24.0,0.,24.0
1980-11-16 07:15:32.500 ,3,0,0.,24.0,0.,24.0,0.,24.0,0.,24.0
1980-11-16 07:15:56.500 ,4,1,0.,24.0,0.,24.0,0.,24.0,0.,24.0
1980-11-16 07:16:20.500 ,4,0,0.,24.0,0.,24.0,0.,24.0,0.,24.0
1980-11-16 07:16:44.500 ,5,1,0.,24.0,0.,24.0,0.,24.0,0.,24.0
1980-11-16 07:17:08.500 ,5,0,0.,24.0,0.,24.0,0.,24.0,0.,24.0
1980-11-16 07:17:32.500 ,6,1,0.,24.0,0.,24.0,0.,24.0,0.,24.0
1980-11-16 07:17:56.500 ,6,0,0.,24.0,0.,24.0,0.,24.0,0.,24.0
1980-11-16 07:18:20.500 ,7,1,0.,24.0,0.,24.0,0.,24.0,0.,24.0
1980-11-16 07:18:44.500 ,7,0,0.,24.0,0.,24.0,0.,24.0,1.,24.0
1980-11-16 07:19:08.500 ,7,1,0.,24.0,0.,24.0,0.,24.0,0.,24.0
1980-11-16 07:19:32.500 ,7,0,0.,24.0,0.,24.0,0.,24.0,0.,24.0
1980-11-16 07:19:56.500 ,6,1,0.,24.0,0.,24.0,0.,24.0,0.,24.0
1980-11-16 07:20:20.500 ,6,0,0.,24.0,0.,24.0,0.,24.0,0.,24.0
1980-11-16 07:20:44.500 ,5,1,0.,24.0,0.,24.0,0.,24.0,0.,24.0
1980-11-16 07:21:08.500 ,5,0,0.,24.0,0.,24.0,0.,24.0,0.,24.0
1980-11-16 07:21:32.500 ,4,1,0.,24.0,0.,24.0,0.,24.0,0.,24.0
1980-11-16 07:21:56.500 ,4,0,0.,24.0,0.,24.0,0.,24.0,0.,24.0
1980-11-16 07:22:20.500 ,3,1,0.,24.0,0.,24.0,0.,24.0,0.,24.0
1980-11-16 07:22:44.500 ,3,0,0.,24.0,0.,24.0,0.,24.0,0.,24.0
1980-11-16 07:23:08.500 ,2,1,0.,24.0,0.,24.0,0.,24.0,0.,24.0
1980-11-16 07:23:32.500 ,2,0,0.,24.0,0.,24.0,0.,24.0,0.,24.0
1980-11-16 07:23:56.500 ,1,1,0.,24.0,0.,24.0,0.,24.0,0.,24.0
1980-11-16 07:24:20.500 ,1,0,0.,24.0,0.,24.0,0.,24.0,0.,24.0
1980-11-16 07:24:44.500 ,0,1,0.,24.0,0.,24.0,0.,24.0,0.,24.0
1980-11-16 07:25:08.500 ,0,0,0.,24.0,0.,24.0,0.,24.0,0.,24.0
1980-11-16 07:25:32.500 ,0,1,0.,24.0,0.,24.0,0.,24.0,0.,24.0
1980-11-16 07:25:56.500 ,0,0,0.,24.0,0.,24.0,0.,24.0,0.,24.0
1980-11-16 07:26:20.500 ,1,1,0.,24.0,0.,24.0,0.,24.0,0.,24.0
1980-11-16 07:26:44.500 ,1,0,0.,24.0,0.,24.0,0.,24.0,0.,24.0
1980-11-16 07:27:08.500 ,2,1,0.,24.0,0.,24.0,0.,24.0,0.,24.0
1980-11-16 07:27:32.500 ,2,0,0.,24.0,0.,24.0,0.,24.0,0.,24.0
1980-11-16 07:27:56.500 ,3,1,0.,24.0,0.,24.0,0.,24.0,0.,24.0
1980-11-16 07:28:20.500 ,3,0,0.,24.0,0.,24.0,0.,24.0,0.,24.0
1980-11-16 07:28:44.500 ,4,1,0.,24.0,0.,24.0,0.,24.0,0.,24.0
1980-11-16 07:29:08.500 ,4,0,0.,24.0,0.,24.0,0.,24.0,0.,24.0
1980-11-16 07:29:32.500 ,5,1,0.,24.0,0.,24.0,0.,24.0,0.,24.0
1980-11-16 07:29:56.500 ,5,0,0.,24.0,0.,24.0,0.,24.0,0.,24.0
1980-11-16 07:30:20.500 ,6,1,0.,24.0,0.,24.0,0.,24.0,0.,24.0
1980-11-16 07:30:44.500 ,6,0,0.,24.0,0.,24.0,0.,24.0,0.,24.0
1980-11-16 07:31:08.500 ,7,1,0.,24.0,0.,24.0,0.,24.0,0.,24.0
1980-11-16 07:31:32.500 ,7,0,0.,24.0,0.,24.0,0.,24.0,0.,24.0
1980-11-16 07:31:56.500 ,7,1,0.,24.0,0.,24.0,0.,24.0,0.,24.0
1980-11-16 07:32:20.500 ,7,0,0.,24.0,0.,24.0,0.,24.0,0.,24.0
1980-11-16 07:32:44.500 ,6,1,0.,24.0,0.,24.0,0.,24.0,0.,24.0
1980-11-16 07:33:08.500 ,6,0,0.,24.0,0.,24.0,0.,24.0,0.,24.0
1980-11-16 07:33:32.500 ,5,1,0.,24.0,0.,24.0,0.,24.0,0.,24.0
1980-11-16 07:33:56.500 ,5,0,0.,24.0,0.,24.0,0.,24.0,0.,24.0
1980-11-16 07:34:20.500 ,4,1,0.,24.0,0.,24.0,0.,24.0,0.,24.0
1980-11-16 07:34:44.500 ,4,0,0.,24.0,0.,24.0,0.,24.0,0.,24.0
1980-11-16 07:35:08.500 ,3,1,0.,24.0,0.,24.0,0.,24.0,0.,24.0
1980-11-16 07:35:32.500 ,3,0,0.,24.0,0.,24.0,0.,24.0,0.,24.0
1980-11-16 07:35:56.500 ,2,1,0.,24.0,0.,24.0,0.,24.0,0.,24.0
1980-11-16 07:36:20.500 ,2,0,0.,24.0,0.,24.0,0.,24.0,0.,24.0
1980-11-16 07:36:44.500 ,1,1,0.,24.0,0.,24.0,0.,24.0,0.,24.0
1980-11-16 07:37:08.500 ,1,0,0.,24.0,0.,24.0,0.,24.0,0.,24.0
1980-11-16 07:37:32.500 ,0,1,0.,24.0,0.,24.0,0.,24.0,0.,24.0
1980-11-16 07:37:56.500 ,0,0,0.,24.0,0.,24.0,0.,24.0,0.,24.0
1980-11-16 07:38:20.500 ,0,1,0.,24.0,0.,24.0,0.,24.0,0.,24.0
1980-11-16 07:38:44.500 ,0,0,0.,24.0,0.,24.0,0.,24.0,0.,24.0
1980-11-16 07:39:08.500 ,1,1,0.,24.0,0.,24.0,0.,24.0,0.,24.0
1980-11-16 07:39:32.500 ,1,0,0.,24.0,0.,24.0,0.,24.0,0.,24.0
1980-11-16 07:39:56.500 ,2,1,0.,24.0,0.,24.0,0.,24.0,0.,24.0
1980-11-16 07:40:20.500 ,2,0,0.,24.0,0.,24.0,0.,24.0,0.,24.0
1980-11-16 07:40:44.500 ,3,1,0.,24.0,0.,24.0,0.,24.0,0.,24.0
1980-11-16 07:41:08.500 ,3,0,0.,24.0,0.,24.0,0.,24.0,0.,24.0
1980-11-16 07:41:32.500 ,4,1,0.,24.0,0.,24.0,0.,24.0,0.,24.0
1980-11-16 07:41:56.500 ,4,0,0.,24.0,0.,24.0,0.,24.0,0.,24.0
1980-11-16 07:42:20.500 ,5,1,0.,24.0,0.,24.0,0.,24.0,0.,24.0
1980-11-16 07:42:44.500 ,5,0,0.,24.0,0.,24.0,0.,24.0,0.,24.0
1980-11-16 07:43:08.500 ,6,1,0.,24.0,0.,24.0,0.,24.0,0.,24.0
1980-11-16 07:43:32.500 ,6,0,0.,24.0,0.,24.0,0.,24.0,0.,24.0
1980-11-16 07:43:56.500 ,7,1,0.,24.0,0.,24.0,0.,24.0,0.,24.0
1980-11-16 07:44:20.500 ,7,0,0.,24.0,0.,24.0,0.,24.0,0.,24.0
1980-11-16 07:44:44.500 ,7,1,0.,24.0,0.,24.0,0.,24.0,0.,24.0
1980-11-16 07:45:08.500 ,7,0,0.,24.0,0.,24.0,0.,24.0,0.,24.0
1980-11-16 07:45:32.500 ,6,1,0.,24.0,0.,24.0,0.,24.0,0.,24.0
1980-11-16 07:45:56.500 ,6,0,0.,24.0,0.,24.0,0.,24.0,0.,24.0
1980-11-16 07:46:20.500 ,0,0,0.,24.0,0.,24.0,0.,24.0,0.,24.0
1980-11-16 07:46:44.500 ,0,0,0.,24.0,0.,24.0,0.,24.0,0.,24.0
1980-11-16 07:47:08.500 ,4,1,0.,24.0,0.,24.0,0.,24.0,0.,24.0
1980-11-16 07:47:32.500 ,4,0,0.,24.0,0.,24.0,0.,24.0,0.,24.0
1980-11-16 07:47:56.500 ,3,1,0.,24.0,0.,24.0,0.,24.0,0.,24.0
1980-11-16 07:48:20.500 ,3,0,0.,24.0,0.,24.0,0.,24.0,0.,24.0
1980-11-16 07:48:44.500 ,2,1,0.,24.0,0.,24.0,0.,24.0,0.,24.0
1980-11-16 07:49:08.500 ,2,0,0.,24.0,0.,24.0,0.,24.0,0.,24.0
1980-11-16 07:49:32.500 ,1,1,0.,24.0,0.,24.0,0.,24.0,0.,24.0
1980-11-16 07:49:56.500 ,1,0,0.,24.0,0.,24.0,0.,24.0,0.,24.0
1980-11-16 07:50:20.500 ,0,1,0.,24.0,0.,24.0,0.,24.0,0.,24.0
1980-11-16 07:50:44.500 ,0,0,0.,24.0,0.,24.0,0.,24.0,0.,24.0
1980-11-16 07:51:08.500 ,0,1,0.,24.0,0.,24.0,0.,24.0,0.,24.0
1980-11-16 07:51:32.500 ,0,0,0.,24.0,0.,24.0,0.,24.0,0.,24.0
1980-11-16 07:51:56.500 ,1,1,0.,24.0,0.,24.0,0.,24.0,0.,24.0
1980-11-16 07:52:20.500 ,1,0,0.,24.0,0.,24.0,0.,24.0,0.,24.0
1980-11-16 07:52:44.500 ,2,1,0.,24.0,0.,24.0,0.,24.0,0.,24.0
1980-11-16 07:53:08.500 ,2,0,0.,24.0,0.,24.0,0.,24.0,0.,24.0
1980-11-16 07:53:32.500 ,3,1,0.,24.0,0.,24.0,0.,24.0,0.,24.0
1980-11-16 07:53:56.500 ,3,0,0.,24.0,0.,24.0,0.,24.0,0.,24.0
1980-11-16 07:54:20.500 ,4,1,0.,24.0,0.,24.0,0.,24.0,0.,24.0
1980-11-16 07:54:44.500 ,4,0,0.,24.0,0.,24.0,0.,24.0,0.,24.0
1980-11-16 07:55:08.500 ,5,1,0.,24.0,0.,24.0,0.,24.0,0.,24.0
1980-11-16 07:55:32.500 ,5,0,0.,24.0,0.,24.0,0.,24.0,0.,24.0
1980-11-16 07:55:56.500 ,6,1,0.,24.0,0.,24.0,0.,24.0,0.,24.0
1980-11-16 07:56:20.500 ,6,0,0.,24.0,0.,24.0,0.,24.0,0.,24.0
1980-11-16 07:56:44.500 ,7,1,0.,24.0,0.,24.0,0.,24.0,0.,24.0
1980-11-16 07:57:08.500 ,7,0,0.,24.0,0.,24.0,0.,24.0,0.,24.0
1980-11-16 07:57:32.500 ,7,1,0.,24.0,0.,24.0,0.,24.0,0.,24.0
1980-11-16 07:57:56.500 ,7,0,0.,24.0,0.,24.0,0.,24.0,0.,24.0
1980-11-16 07:58:20.500 ,6,1,0.,24.0,0.,24.0,0.,24.0,0.,24.0
1980-11-16 07:58:44.500 ,6,0,0.,24.0,0.,24.0,0.,24.0,0.,24.0
1980-11-16 07:59:08.500 ,5,1,0.,24.0,0.,24.0,0.,24.0,0.,24.0
1980-11-16 07:59:32.500 ,5,0,0.,24.0,0.,24.0,0.,24.0,0.,24.0
1980-11-16 07:59:56.500 ,4,1,0.,24.0,0.,24.0,0.,24.0,0.,24.0
1980-11-16 08:00:20.500 ,4,0,0.,24.0,0.,24.0,0.,24.0,0.,24.0
1980-11-16 08:00:44.500 ,3,1,0.,24.0,0.,24.0,0.,24.0,0.,24.0
1980-11-16 08:01:08.500 ,3,0,0.,24.0,0.,24.0,0.,24.0,0.,24.0
1980-11-16 08:01:32.500 ,2,1,0.,24.0,0.,24.0,0.,24.0,0.,24.0
1980-11-16 08:01:56.500 ,2,0,0.,24.0,0.,24.0,0.,24.0,0.,24.0
1980-11-16 08:02:20.500 ,1,1,0.,24.0,0.,24.0,0.,24.0,0.,24.0
1980-11-16 08:02:44.500 ,1,0,0.,24.0,0.,24.0,0.,24.0,0.,24.0
1980-11-16 08:03:08.500 ,0,1,0.,24.0,0.,24.0,0.,24.0,0.,24.0
1980-11-16 08:03:32.500 ,0,0,0.,24.0,0.,24.0,0.,24.0,0.,24.0
1980-11-16 08:03:56.500 ,0,1,0.,24.0,0.,24.0,0.,24.0,0.,24.0
1980-11-16 08:04:20.500 ,0,0,0.,24.0,0.,24.0,0.,24.0,0.,24.0
1980-11-16 08:04:44.500 ,1,1,0.,24.0,0.,24.0,0.,24.0,0.,24.0
1980-11-16 08:05:08.500 ,1,0,0.,24.0,0.,24.0,0.,24.0,0.,24.0
1980-11-16 08:05:32.500 ,2,1,0.,24.0,0.,24.0,0.,24.0,0.,24.0
1980-11-16 08:05:56.500 ,2,0,0.,24.0,0.,24.0,0.,24.0,0.,24.0
1980-11-16 08:06:20.500 ,3,1,0.,24.0,0.,24.0,0.,24.0,0.,24.0
1980-11-16 08:06:44.500 ,3,0,0.,24.0,0.,24.0,0.,24.0,0.,24.0
1980-11-16 08:07:08.500 ,4,1,0.,24.0,0.,24.0,0.,24.0,0.,24.0
1980-11-16 08:07:32.500 ,4,0,0.,24.0,0.,24.0,0.,24.0,0.,24.0
1980-11-16 08:07:56.500 ,5,1,0.,24.0,0.,24.0,0.,24.0,0.,24.0
1980-11-16 08:08:20.500 ,5,0,0.,24.0,0.,24.0,0.,24.0,0.,24.0
1980-11-16 08:08:44.500 ,6,1,0.,24.0,0.,24.0,0.,24.0,0.,24.0
1980-11-16 08:09:08.500 ,6,0,0.,24.0,0.,24.0,0.,24.0,0.,24.0
1980-11-16 08:09:32.500 ,7,1,0.,24.0,0.,24.0,0.,24.0,0.,24.0
1980-11-16 08:09:56.500 ,7,0,0.,24.0,0.,24.0,0.,24.0,0.,24.0
1980-11-16 08:10:20.500 ,7,1,0.,24.0,0.,24.0,0.,24.0,0.,24.0
1980-11-16 08:10:44.500 ,7,0,0.,24.0,0.,24.0,0.,24.0,0.,24.0
1980-11-16 08:11:08.500 ,6,1,0.,24.0,0.,24.0,0.,24.0,0.,24.0
1980-11-16 08:11:32.500 ,6,0,0.,24.0,0.,24.0,0.,24.0,0.,24.0
1980-11-16 08:11:56.500 ,5,1,0.,24.0,0.,24.0,0.,24.0,0.,24.0
1980-11-16 08:12:20.500 ,5,0,0.,24.0,0.,24.0,0.,24.0,0.,24.0
1980-11-16 08:12:44.500 ,4,1,0.,24.0,0.,24.0,0.,24.0,0.,24.0
1980-11-16 08:13:08.500 ,4,0,0.,24.0,0.,24.0,0.,24.0,0.,24.0
1980-11-16 08:13:32.500 ,3,1,0.,24.0,0.,24.0,0.,24.0,0.,24.0
1980-11-16 08:13:56.500 ,3,0,0.,24.0,0.,24.0,0.,24.0,0.,24.0
1980-11-16 08:14:20.500 ,2,1,0.,24.0,0.,24.0,0.,24.0,0.,24.0
1980-11-16 08:14:44.500 ,2,0,0.,24.0,0.,24.0,0.,24.0,0.,24.0
1980-11-16 08:15:08.500 ,1,1,0.,24.0,0.,24.0,0.,24.0,0.,24.0
1980-11-16 08:15:32.500 ,1,0,0.,24.0,0.,24.0,0.,24.0,0.,24.0
1980-11-16 08:15:56.500 ,0,1,0.,24.0,0.,24.0,0.,24.0,0.,24.0
1980-11-16 08:16:20.500 ,0,0,,0,,0,,0,,0
1980-11-16 08:16:44.500 ,0,1,0.,24.0,0.,24.0,0.,24.0,0.,24.0
1980-11-16 08:17:08.500 ,0,0,0.,24.0,0.,24.0,0.,24.0,0.,24.0
1980-11-16 08:17:32.500 ,1,1,0.,24.0,0.,24.0,0.,24.0,0.,24.0
1980-11-16 08:17:56.500 ,1,0,0.,24.0,0.,24.0,0.,24.0,0.,24.0
1980-11-16 08:18:20.500 ,2,1,0.,24.0,0.,24.0,0.,24.0,0.,24.0
1980-11-16 08:18:44.500 ,2,0,0.,24.0,0.,24.0,0.,24.0,0.,24.0
1980-11-16 08:19:08.500 ,3,1,0.,24.0,0.,24.0,0.,24.0,0.,24.0
1980-11-16 08:19:32.500 ,3,0,0.,24.0,0.,24.0,0.,24.0,0.,24.0
1980-11-16 08:19:56.500 ,4,1,0.,24.0,0.,24.0,0.,24.0,0.,24.0
1980-11-16 08:20:20.500 ,4,0,0.,24.0,0.,24.0,0.,24.0,0.,24.0
1980-11-16 08:20:44.500 ,5,1,0.,24.0,0.,24.0,0.,24.0,0.,24.0
1980-11-16 08:21:08.500 ,5,0,0.,24.0,0.,24.0,0.,24.0,0.,24.0
1980-11-16 08:21:32.500 ,6,1,0.,24.0,0.,24.0,0.,24.0,0.,24.0
1980-11-16 08:21:56.500 ,6,0,0.,24.0,0.,24.0,0.,24.0,0.,24.0
1980-11-16 08:22:20.500 ,7,1,0.,24.0,0.,24.0,0.,24.0,0.,24.0
1980-11-16 08:22:44.500 ,7,0,0.,24.0,0.,24.0,0.,24.0,0.,24.0
1980-11-16 08:23:08.500 ,7,1,0.,24.0,0.,24.0,0.,24.0,0.,24.0
1980-11-16 08:23:32.500 ,7,0,0.,24.0,0.,24.0,0.,24.0,0.,24.0
1980-11-16 08:23:56.500 ,6,1,0.,24.0,0.,24.0,0.,24.0,0.,24.0
1980-11-16 08:24:20.500 ,6,0,0.,24.0,0.,24.0,0.,24.0,0.,24.0
1980-11-16 08:24:44.500 ,5,1,0.,24.0,0.,24.0,0.,24.0,0.,24.0
1980-11-16 08:25:08.500 ,5,0,0.,24.0,0.,24.0,0.,24.0,0.,24.0
1980-11-16 08:25:32.500 ,4,1,0.,24.0,0.,24.0,0.,24.0,0.,24.0
1980-11-16 08:25:56.500 ,4,0,0.,24.0,0.,24.0,0.,24.0,0.,24.0
1980-11-16 08:26:20.500 ,3,1,0.,24.0,0.,24.0,0.,24.0,0.,24.0
1980-11-16 08:26:44.500 ,3,0,0.,24.0,0.,24.0,0.,24.0,0.,24.0
1980-11-16 08:27:08.500 ,2,1,0.,24.0,0.,24.0,0.,24.0,0.,24.0
1980-11-16 08:27:32.500 ,2,0,0.,24.0,0.,24.0,0.,24.0,0.,24.0
1980-11-16 08:27:56.500 ,1,1,0.,24.0,0.,24.0,0.,24.0,0.,24.0
1980-11-16 08:28:20.500 ,1,0,0.,24.0,0.,24.0,0.,24.0,0.,24.0
1980-11-16 08:28:44.500 ,0,1,0.,24.0,0.,24.0,0.,24.0,0.,24.0
1980-11-16 08:29:08.500 ,0,0,0.,24.0,0.,24.0,0.,24.0,0.,24.0
1980-11-16 08:29:32.500 ,0,1,0.,24.0,0.,24.0,0.,24.0,0.,24.0
1980-11-16 08:29:56.500 ,0,0,0.,24.0,0.,24.0,0.,24.0,0.,24.0
1980-11-16 08:30:20.500 ,1,1,0.,24.0,0.,24.0,0.,24.0,0.,24.0
1980-11-16 08:30:44.500 ,1,0,0.,24.0,0.,24.0,0.,24.0,0.,24.0
1980-11-16 08:31:08.500 ,2,1,0.,24.0,0.,24.0,0.,24.0,0.,24.0
1980-11-16 08:31:32.500 ,2,0,0.,24.0,0.,24.0,0.,24.0,0.,24.0
1980-11-16 08:31:56.500 ,3,1,0.,24.0,0.,24.0,0.,24.0,0.,24.0
1980-11-16 08:32:20.500 ,3,0,0.,24.0,0.,24.0,0.,24.0,0.,24.0
1980-11-16 08:32:44.500 ,4,1,0.,24.0,0.,24.0,0.,24.0,0.,24.0
1980-11-16 08:33:08.500 ,4,0,,0,,0,,0,,0
1980-11-16 08:33:32.500 ,5,1,0.,24.0,0.,24.0,0.,24.0,0.,24.0
1980-11-16 08:33:56.500 ,5,0,0.,24.0,0.,24.0,0.,24.0,0.,24.0
1980-11-16 08:34:20.500 ,6,1,0.,24.0,0.,24.0,0.,24.0,0.,24.0
1980-11-16 08:34:44.500 ,0,0,0.,24.0,0.,24.0,0.,24.0,0.,24.0
1980-11-16 08:35:08.500 ,7,1,0.,24.0,0.,24.0,0.,24.0,0.,24.0